South Alabama Regional At Bill Benton Field Airport
K79J : now visible

Airfield :











YOU CAN JOIN US ON...

 
LOGIN :

Register | Disclaimer

   EN    FR    IT 

 









Legend :    VFR   Marginal VFR   IFR   Intensive IFR   Very Intensive IFR
Visi :
Ceiling :
>= 8 km
>= 3000ft
5 to 8 km
1000 to 3000 ft
1500m to 5 km
500 to 1000 ft
800 to 1500m
200 to 500 ft
< 800m
< 200 ft
Symbols :   Thunderstorms  Fog  Heavy snow  Heavy precipitations  Wind > 20 kt






- Airport Elevation : 310 ft


K79J - South Alabama Regional At Bill Benton Field

CURRENT METAR :
  • 170356Z AUTO 10005KT 10SM OVC005 13/11 A3005 RMK AO2 SLP174 T01330111

EXPIRED METARs :
  • 170336Z AUTO 09007KT 10SM OVC006 13/11 A3005 RMK AO2 T01330111
  • 170256Z AUTO 08007KT 10SM OVC005 13/11 A3006 RMK AO2 RAE24 SLP177 P0001 60006 T01330111 50003
  • 170245Z AUTO 10004KT 10SM OVC005 13/11 A3006 RMK AO2 RAE24 P0001 T01330111
  • 170221Z AUTO 11005KT 10SM -RA BKN006 OVC020 13/11 A3006 RMK AO2 CIG 003V010 P0001 T01330111
  • 170204Z AUTO 09005KT 6SM -RA BR OVC007 13/11 A3007 RMK AO2 CIG 003V010 P0000 T01330111
  • 170156Z AUTO 06005KT 5SM -RA BR BKN005 OVC009 13/11 A3007 RMK AO2 CIG 003V007 SLP181 P0001 T01330111

TAF N/A



MET'MAP, your aeronautical weather chart ! - Copyright ORBIFLY December 2007 - Disclaimer

ORBIFLY MET'MAP TEAM :

Programming & Development : Alexandra Zaïnal
Concept & original design : Baudouin d'Aumeries
Assistance for programming : Marc-Olivier Méhu
Technical & hardware support : Manuel Goepfert

Contact : metmap@orbifly.com




SOURCES & CREDITS :

   NOAA       Earth
Advisory